Location: La Plant
(45.1447°N, 100.6515°W)
Time: 22:28:04
(UTC+00:00)

ISS - Pass Details

Date: 29 November 2020
Orbit: 418 x 419 km, 51.6° (Epoch: 18 January)

Event Time Altitude Azimuth Distance (km) Brightness Sun altitude
Rises 00:47:37 0° 286° (WNW) 2,367 1.2 -17.9°
Reaches altitude 10° 00:49:56 10° 299° (WNW) 1,503 -0.3 -18.3°
Maximum altitude 00:52:50 26° 358° (N) 872 -2.3 -18.8°
Enters shadow 00:52:53 26° 0° (N) 873 -2.3 -18.8°
